Weather History for Toledo, OH

Change the Weather History Date:

Saturday, May 4, 2013

  Actual Average Record
Temperature  
Mean Temperature 61 °F 56 °F  
Max Temperature 69 °F 67 °F 89 °F (1895)
Min Temperature 53 °F 45 °F 25 °F (2005)
Degree Days  
Heating Degree Days 4 10  
Month to date heating degree days 4 40  
Since 1 July heating degree days 5981 5942  
Cooling Degree Days 0 1  
Month to date cooling degree days 3 1  
Year to date cooling degree days 3 9  
Growing Degree Days 12 (Base 50)    
Moisture  
Dew Point 40 °F    
Average Humidity 46    
Maximum Humidity 66    
Minimum Humidity 26    
Precipitation  
Precipitation 0.00 in 0.11 in 1.27 in (1965)
Month to date precipitation 0.00 0.44  
Year to date precipitation 11.89 10.23  
Snow  
Snow 0.00 in 0.00 in - ()
Month to date snowfall 0.0 0.0  
Since 1 July snowfall 22.4 37.5  
Snow Depth 0.00 in    
Sea Level Pressure  
Sea Level Pressure 30.06 in    
Wind  
Wind Speed 10 mph (East)    
Max Wind Speed 21 mph    
Max Gust Speed 26 mph    
Visibility 10 miles    
Events      
T = Trace of Precipitation, MM = Missing Value Source: NWS Daily Summary

Daily Weather History Graph

Daily Weather History Graph

Search for Another Location

Airport:

Trip Planner

Search our weather history database for the weather conditions in past years. The results will help you decide how hot, cold, wet, or windy it might be!

Date:

Astronomy

May. 04, 2013 Rise Set
Actual Time 6:27 AM EDT 8:36 PM EDT
Civil Twilight 5:57 AM EDT 9:07 PM EDT
Nautical Twilight 5:19 AM EDT 9:44 PM EDT
Astronomical Twilight 4:38 AM EDT 10:26 PM EDT
Moon 3:29 AM EDT (5/4) 3:29 PM EDT (5/4)
Length of Visible Light 15h 09m
Length of Day
14h 08m
Waning Crescent, 27% of the Moon is Illuminated
May 4
Waning Crescent
May 9
New
May 18
First Quarter
May 25
Full
May 31
Last Quarter

Hourly Weather History & Observations

Time (EDT) Temp. Dew Point Humidity Pressure Visibility Wind Dir Wind Speed Gust Speed Precip Events Conditions
12:52 AM 62.1 °F 43.0 °F 50% 30.04 in 10.0 mi SE 5.8 mph - N/A   Clear
1:52 AM 60.1 °F 43.0 °F 53% 30.06 in 10.0 mi ESE 3.5 mph - N/A   Clear
2:52 AM 57.9 °F 43.0 °F 58% 30.06 in 10.0 mi ESE 3.5 mph - N/A   Clear
3:52 AM 59.0 °F 42.1 °F 53% 30.06 in 10.0 mi ESE 4.6 mph - N/A   Clear
4:52 AM 59.0 °F 42.1 °F 53% 30.06 in 10.0 mi ESE 3.5 mph - N/A   Clear
5:52 AM 55.9 °F 42.1 °F 60% 30.07 in 10.0 mi East 3.5 mph - N/A   Clear
6:52 AM 54.0 °F 43.0 °F 66% 30.08 in 10.0 mi East 5.8 mph - N/A   Clear
7:52 AM 57.0 °F 45.0 °F 64% 30.09 in 10.0 mi East 9.2 mph - N/A   Clear
8:52 AM 59.0 °F 44.1 °F 58% 30.09 in 10.0 mi ESE 9.2 mph - N/A   Clear
9:52 AM 60.1 °F 43.0 °F 53% 30.10 in 10.0 mi ESE 12.7 mph 19.6 mph N/A   Clear
10:52 AM 62.1 °F 41.0 °F 46% 30.10 in 10.0 mi East 13.8 mph 18.4 mph N/A   Clear
11:52 AM 64.0 °F 37.9 °F 38% 30.09 in 10.0 mi East 10.4 mph 16.1 mph N/A   Clear
12:52 PM 66.0 °F 34.0 °F 30% 30.07 in 10.0 mi East 10.4 mph 18.4 mph N/A   Clear
1:52 PM 66.9 °F 30.0 °F 25% 30.06 in 10.0 mi East 13.8 mph 20.7 mph N/A   Clear
2:52 PM 68.0 °F 33.1 °F 27% 30.05 in 10.0 mi East 15.0 mph 21.9 mph N/A   Clear
3:52 PM 66.0 °F 41.0 °F 40% 30.04 in 10.0 mi ENE 20.7 mph - N/A   Clear
4:52 PM 66.9 °F 42.1 °F 40% 30.03 in 10.0 mi ENE 17.3 mph 25.3 mph N/A   Clear
5:52 PM 66.0 °F 39.0 °F 37% 30.03 in 10.0 mi ENE 16.1 mph 25.3 mph N/A   Clear
6:52 PM 64.0 °F 37.9 °F 38% 30.04 in 10.0 mi East 18.4 mph 25.3 mph N/A   Clear
7:52 PM 62.1 °F 37.9 °F 41% 30.04 in 10.0 mi East 13.8 mph - N/A   Clear
8:52 PM 57.9 °F 39.9 °F 51% 30.06 in 10.0 mi East 10.4 mph - N/A   Clear
9:52 PM 57.0 °F 39.9 °F 53% 30.07 in 10.0 mi ENE 9.2 mph - N/A   Clear
10:52 PM 55.0 °F 39.9 °F 57% 30.07 in 10.0 mi East 6.9 mph - N/A   Clear
11:52 PM 53.1 °F 41.0 °F 64% 30.06 in 10.0 mi ENE 4.6 mph - N/A   Clear